Theta_e
331 329 329 327 327 327 328 329 326 325 325 327 335 355 356 352 350 351 343 345 350 349 349 347 345 344 342 342 343 344 345 345 343 344 344 347 349 350 348 348 349 348 349 345
328 330 329 329 328 328 327 327 328 327 327 323 328 351 350 343 343 345 345 345 350 349 350 349 346 344 343 342 343 343 344 346 344 343 343 347 349 348 349 350 350 344 348 346
327 327 329 329 329 328 326 326 327 327 327 325 325 349 347 344 344 344 348 350 348 350 349 349 348 345 344 342 342 342 342 347 345 341 341 347 348 347 349 351 350 349 341 349
325 328 328 327 327 327 324 326 328 327 325 323 325 325 349 345 346 347 348 347 350 347 349 349 348 346 344 343 341 341 342 345 346 344 339 344 347 346 349 347 348 349 342 345
323 325 327 328 327 325 324 326 325 325 324 323 325 323 328 347 349 346 346 345 345 348 348 348 348 348 345 344 342 341 341 343 344 343 337 346 346 345 348 348 349 347 345 345
319 321 321 323 324 325 326 325 324 323 322 322 323 324 325 353 349 347 346 336 338 344 345 349 349 347 347 345 343 342 342 340 342 342 337 342 344 346 349 345 349 348 349 346
317 318 319 321 321 324 323 322 322 323 322 324 323 323 324 327 349 350 347 339 339 346 348 350 349 348 348 347 345 343 343 342 339 339 337 337 339 347 348 349 344 348 348 348
316 317 317 319 319 324 325 321 322 325 324 324 323 324 325 325 341 346 346 339 340 348 349 350 349 348 348 348 346 345 344 344 343 335 336 333 333 341 346 348 346 349 347 347
317 318 318 319 319 319 321 323 322 322 322 324 325 325 326 326 325 344 342 341 342 347 349 350 350 349 348 348 348 346 345 345 344 341 332 336 330 339 344 348 350 351 350 345
316 316 317 318 317 318 319 322 322 321 324 326 325 326 327 328 325 332 343 342 347 349 349 349 350 350 349 348 348 347 347 346 346 344 337 331 332 328 340 345 347 349 350 349
316 315 315 317 317 316 317 320 320 320 322 325 325 325 325 328 330 329 331 342 345 346 346 350 351 351 351 349 349 349 347 347 347 346 344 334 331 332 332 343 345 347 346 348
315 314 315 316 317 317 316 316 319 320 322 324 326 328 328 327 331 332 328 344 345 344 342 342 344 346 352 351 351 350 349 348 347 347 347 345 333 329 329 332 345 342 346 344
314 314 315 315 315 316 317 317 317 318 317 319 326 328 328 329 329 330 332 334 345 342 342 339 339 337 351 351 352 352 350 349 349 349 348 348 347 338 329 328 329 343 336 341
314 312 314 316 316 315 316 317 317 314 314 317 321 323 327 327 327 328 332 333 338 348 345 347 343 337 340 349 353 353 352 352 351 351 351 350 350 349 345 333 329 329 330 333
313 314 313 313 314 314 314 316 317 316 315 318 318 322 328 326 325 327 332 331 331 344 345 345 345 342 343 347 353 354 355 354 355 354 353 353 352 351 351 349 341 333 331 330
315 316 315 316 315 315 314 316 316 317 317 316 316 318 324 323 323 323 327 329 330 328 341 344 346 343 342 343 352 353 354 355 355 356 356 356 355 354 354 353 351 346 339 335
315 315 314 315 315 315 316 315 315 316 317 316 316 316 318 318 320 321 319 324 324 328 334 339 340 345 347 346 347 343 349 354 355 355 357 357 356 355 356 354 354 352 349 343
311 314 315 314 315 317 314 314 315 316 317 317 315 317 323 326 326 322 326 322 322 335 338 340 343 343 344 349 348 347 348 355 354 356 356 356 356 356 356 355 354 354 353 349
310 313 313 314 315 314 313 315 317 316 316 321 322 323 324 326 327 327 329 328 322 331 328 334 339 341 344 349 350 348 344 352 356 355 355 355 355 356 356 356 354 354 354 353
312 312 315 315 315 314 315 314 315 314 315 318 318 321 321 324 327 325 325 331 327 323 322 326 343 348 349 352 351 353 342 344 351 357 354 354 355 356 356 355 354 354 353 353
314 315 315 316 316 315 315 315 314 315 316 315 315 316 316 319 319 321 323 327 331 332 331 333 340 343 349 351 351 348 352 342 347 358 357 355 355 356 356 355 355 354 354 354
313 313 316 315 315 314 312 314 315 312 311 312 312 313 314 315 315 320 322 323 328 330 332 332 333 337 340 342 341 334 348 352 352 353 358 357 357 357 357 356 356 356 355 355
313 311 311 311 314 310 308 308 308 308 309 309 310 311 312 313 314 318 320 322 324 326 327 329 330 331 332 332 334 341 349 356 357 350 359 359 359 359 359 358 357 357 357 357
310 308 308 309 310 308 306 305 304 305 305 306 308 309 309 312 313 316 319 321 322 324 325 325 325 326 329 330 332 339 346 352 355 356 351 362 359 360 360 361 360 359 359 359
308 307 309 309 308 306 307 305 305 304 305 305 306 308 311 311 312 316 319 321 322 323 323 323 324 324 324 327 331 338 344 349 354 358 356 357 362 359 361 360 362 361 360 360
308 308 307 306 306 305 305 305 304 304 304 304 308 311 314 312 313 317 317 318 322 322 323 323 322 320 319 321 328 334 340 349 356 364 366 359 361 361 361 361 362 362 361 361
Wind_Speed
12 3 8 9 10 10 14 15 13 10 12 9 15 18 24 29 28 35 35 33 34 38 32 34 41 37 38 35 32 27 26 23 22 23 29 22 16 15 13 13 7 8 5 6
6 11 9 10 13 12 17 16 16 14 14 9 9 13 20 18 27 40 38 30 29 38 36 37 37 43 41 39 36 32 29 27 23 23 30 22 17 17 14 12 12 4 7 4
10 11 18 15 12 15 15 11 13 12 19 14 6 4 9 12 14 17 20 22 10 43 40 39 35 44 42 41 39 35 35 30 27 23 27 23 17 18 15 15 14 9 6 7
10 17 15 16 16 14 9 10 12 14 10 5 5 4 6 12 8 15 19 13 9 5 44 41 42 42 46 43 39 36 37 35 30 27 27 28 24 23 19 17 13 8 8 7
8 11 12 16 13 15 12 10 9 10 9 5 18 3 6 16 7 7 20 9 17 25 33 47 48 42 45 44 42 40 35 39 35 31 29 31 28 25 20 18 17 13 8 9
9 19 6 7 12 12 6 7 11 7 2 5 11 2 10 11 17 9 16 27 15 41 34 50 52 47 42 46 44 42 38 40 39 35 32 33 32 28 23 23 23 19 15 10
6 10 11 13 9 6 7 4 3 4 5 10 8 7 10 6 21 26 30 40 48 48 37 44 49 48 44 46 48 47 44 40 42 38 36 34 33 31 26 20 21 22 20 14
4 9 8 4 6 6 7 7 5 7 5 9 9 8 9 12 19 37 50 56 46 51 46 51 52 52 49 48 49 49 49 45 42 42 41 37 33 34 29 24 22 22 19 17
7 6 17 15 16 13 9 7 8 6 9 7 6 9 18 11 9 22 34 34 38 35 40 46 52 54 53 50 52 53 51 48 44 42 41 42 36 37 35 30 22 22 17 13
8 5 6 14 17 10 9 5 3 3 7 12 5 11 6 6 13 14 20 34 39 37 38 39 27 45 56 55 53 52 51 49 44 42 44 45 42 36 38 35 30 29 22 22
5 3 9 9 4 9 12 3 4 2 3 10 9 7 9 8 7 18 19 41 40 39 38 39 42 32 41 55 53 54 54 50 47 42 41 45 46 42 39 39 35 31 31 28
9 4 5 13 18 17 15 12 9 4 8 4 3 6 23 13 19 38 16 40 50 53 42 34 29 41 26 45 52 57 58 54 49 44 41 40 46 46 43 41 40 37 32 30
7 4 4 9 9 1 6 12 13 2 3 9 5 5 12 13 15 31 34 40 34 42 41 39 31 36 55 39 55 57 59 57 52 47 45 43 41 46 48 46 44 41 37 34
7 3 4 5 11 10 12 22 22 11 6 9 10 12 10 13 15 23 29 43 28 40 46 50 40 45 45 44 47 48 55 54 52 48 47 46 44 43 43 47 47 45 43 38
4 4 8 14 17 16 17 19 23 20 11 3 10 11 3 6 11 18 24 32 37 20 11 20 27 29 49 43 44 47 42 48 46 47 47 47 44 42 40 41 44 46 47 43
1 5 7 13 17 19 20 18 19 21 19 11 12 15 7 17 23 24 23 27 25 26 16 12 11 28 36 45 41 29 35 44 48 46 47 44 41 40 40 40 41 42 44 46
1 2 3 5 10 15 15 14 16 20 19 11 10 5 10 11 14 24 24 24 28 30 37 14 18 15 11 21 29 36 36 35 49 51 50 47 43 41 39 39 41 42 41 44
7 4 4 4 4 5 7 16 17 19 20 16 12 9 14 18 24 21 33 25 33 26 33 32 20 22 22 14 24 28 36 31 53 52 53 51 48 45 41 38 40 41 41 41
7 2 2 3 4 8 11 5 11 10 8 17 19 17 23 24 20 17 37 35 13 11 27 35 28 16 17 11 2 1 32 40 35 53 53 52 50 47 44 42 39 40 40 40
10 6 4 2 4 5 6 7 15 11 2 21 22 15 20 21 6 7 37 35 23 34 36 31 26 18 14 13 10 9 8 29 26 38 51 51 49 49 47 44 41 38 39 40
5 2 6 7 5 5 14 18 5 7 6 23 22 19 18 8 9 23 24 30 24 11 13 15 14 17 15 17 15 13 6 20 25 42 46 48 48 49 48 45 42 41 40 39
3 4 3 4 6 5 28 12 7 11 25 22 21 22 19 13 22 21 21 25 22 18 19 17 16 15 17 20 23 23 19 11 17 12 44 44 45 46 45 46 45 43 41 41
1 2 3 2 5 16 18 17 17 19 20 28 26 26 24 18 15 16 22 19 20 17 16 19 20 19 21 20 21 22 22 19 15 20 23 44 43 43 43 45 46 44 43 42
2 4 2 4 3 18 26 16 22 22 23 27 29 35 33 26 18 14 15 16 17 18 15 18 23 25 26 22 20 21 23 22 21 21 26 35 45 41 43 42 44 44 44 44
3 5 3 5 11 22 4 25 26 28 30 31 30 40 39 27 24 13 11 11 15 12 12 15 19 23 26 23 20 19 21 22 20 23 27 29 41 42 41 44 42 43 45 45
5 4 2 3 10 12 18 24 25 26 27 27 33 37 25 26 23 14 15 15 10 11 9 10 14 18 18 16 15 16 15 18 14 9 17 28 37 40 40 42 42 42 43 43
Wind_Direction
216 239 217 227 246 254 269 279 288 279 246 241 202 151 177 168 140 155 190 241 204 195 199 190 178 181 176 184 187 186 190 193 188 175 176 164 173 173 186 188 208 184 179 142
239 228 241 223 241 236 254 269 281 288 289 187 228 167 165 168 162 167 186 194 211 187 194 198 181 183 182 185 192 191 191 196 197 183 178 175 175 184 182 185 185 160 175 147
221 235 223 237 241 244 247 244 270 278 301 310 235 76 147 194 169 177 169 184 214 182 191 196 187 185 186 189 193 193 192 198 201 196 179 176 174 184 190 189 176 172 208 197
228 231 251 224 235 248 257 262 259 268 290 279 26 281 212 183 165 167 166 154 227 256 189 193 195 185 192 193 195 197 197 198 201 202 189 178 185 185 190 193 198 200 203 191
257 224 245 245 251 218 250 278 282 283 287 306 295 25 263 158 148 213 143 143 253 259 225 193 196 196 196 196 197 198 204 202 203 205 197 184 185 187 189 202 205 216 194 198
298 311 288 261 276 262 270 251 274 295 320 292 268 171 280 171 186 156 132 125 258 251 245 196 195 196 195 200 199 200 204 208 208 205 201 192 188 187 193 200 214 212 202 203
275 265 277 291 314 280 261 288 306 296 284 255 266 265 235 266 186 168 168 180 187 211 216 199 191 192 194 200 203 203 205 209 211 208 204 197 192 188 194 200 204 208 205 206
293 313 216 256 226 263 253 208 181 229 232 263 250 263 262 251 182 177 179 186 201 194 203 201 192 192 194 202 207 207 207 211 213 209 205 203 196 193 192 197 208 213 221 223
4 285 339 325 332 237 255 264 240 240 275 279 274 277 258 249 272 176 184 190 201 208 214 195 192 191 194 200 210 212 211 212 215 211 205 204 204 195 195 196 200 207 212 214
345 336 336 337 333 327 187 236 309 288 223 259 287 288 268 267 237 195 201 187 194 201 180 180 195 194 197 201 211 211 217 215 215 214 209 207 208 202 200 200 203 205 203 213
40 44 299 334 314 335 337 289 294 262 240 243 264 269 259 247 328 295 198 194 189 188 175 172 185 200 205 203 205 211 216 217 216 216 215 211 211 211 205 205 208 205 211 213
9 298 320 293 296 303 300 288 240 191 278 245 209 272 279 320 4 353 233 189 187 195 194 187 191 228 217 211 200 210 216 218 220 218 218 218 216 216 214 211 212 214 211 212
354 328 346 320 320 314 327 330 312 263 308 266 255 252 339 16 14 3 3 18 190 173 172 164 159 189 228 242 201 205 211 219 219 221 219 221 221 218 221 218 216 214 221 214
355 288 269 262 288 329 317 318 321 312 242 269 267 262 7 358 6 0 6 10 18 173 181 175 187 185 216 222 202 204 204 214 218 218 221 221 224 225 222 224 222 223 222 222
35 288 304 296 295 303 298 301 305 306 293 255 286 292 331 3 357 358 10 11 20 75 174 185 193 203 188 203 193 196 210 202 215 219 220 224 226 227 229 227 227 223 226 228
344 314 329 299 298 297 284 279 287 291 290 296 299 295 322 19 2 358 352 355 359 0 38 68 345 236 208 202 188 194 204 211 204 218 224 224 225 226 225 229 230 227 223 228
147 164 353 276 311 312 287 269 279 280 285 281 288 323 358 9 16 349 334 4 353 347 343 10 26 42 232 209 183 218 223 222 210 211 220 224 223 225 225 225 226 229 226 223
262 189 155 288 288 276 267 321 290 283 288 319 291 13 20 14 357 354 350 313 306 354 7 8 23 30 40 175 246 226 226 223 213 214 216 222 224 224 224 225 226 227 230 227
266 218 247 188 221 267 289 301 16 3 320 30 32 25 5 356 10 20 356 350 277 314 340 353 353 353 10 33 65 338 224 235 207 213 217 222 225 224 224 223 227 227 228 232
10 22 163 331 255 255 62 332 311 340 255 9 20 29 10 0 39 346 347 353 322 288 285 315 344 353 347 0 339 327 235 211 222 232 220 222 223 226 226 228 228 229 229 232
312 304 248 221 240 283 345 329 297 278 336 345 353 2 14 9 339 324 337 348 352 0 315 310 313 344 339 322 331 336 328 218 259 231 224 225 225 227 228 229 229 229 231 233
325 338 329 302 219 258 4 19 9 326 319 321 329 330 337 346 320 332 330 351 345 343 327 321 315 318 316 311 318 313 312 285 226 244 227 226 228 226 227 225 228 229 232 234
63 77 296 268 295 354 353 324 336 343 330 312 318 315 312 309 303 322 312 333 332 341 322 314 316 312 304 308 315 312 306 296 255 238 234 228 225 226 225 224 224 226 230 233
265 68 242 304 23 333 320 344 340 330 319 309 301 302 303 289 286 293 301 303 321 315 336 333 319 317 311 310 306 302 301 296 271 255 234 231 224 223 221 226 225 226 227 230
239 306 276 256 278 315 230 326 329 324 322 310 301 304 281 261 266 265 270 286 298 293 305 317 319 314 312 310 303 301 294 287 275 252 242 234 225 222 222 224 225 226 233 235
209 224 209 262 315 313 308 320 325 323 317 315 319 312 262 231 242 238 250 261 269 273 295 297 311 306 319 318 304 299 298 286 273 241 224 231 227 222 224 224 224 229 237 239